Creek Data

    Home     View Charts     View Raw Data     Messages

ID Distance Battery Voltage Battery Current Internal Temp Internal Humidity External Temp Solar Input rssi snr Time Stamp Record
66894 11.5 3.81 0 39 48 40 5.1 -72 7 02/21/2026 08:30 AM 49724
66893 11.5 3.81 0 37 48 38 5.1 -72 8 02/21/2026 08:15 AM 49723
66892 11.5 3.81 0 36 48 38 5.1 -72 9 02/21/2026 08:00 AM 49722
66891 11.5 3.95 34 35 48 37 4.5 -72 8 02/21/2026 07:45 AM 49721
66890 11.5 4.01 6 34 49 36 4.5 -72 9 02/21/2026 07:30 AM 49720
66889 11.5 3.88 5 33 49 35 4.5 -72 8 02/21/2026 07:15 AM 49719
66888 11.5 3.64 0 32 50 35 4.5 -72 9 02/21/2026 07:00 AM 49718
66887 11.5 3.61 -6 31 51 34 4.1 -73 9 02/21/2026 06:45 AM 49717
66886 11.5 3.62 -5 31 50 33 0.6 -73 9 02/21/2026 06:30 AM 49716
66885 11.5 3.63 -5 31 51 33 0 -73 9 02/21/2026 06:15 AM 49715
66884 11.5 3.63 -5 31 50 33 0.1 -73 9 02/21/2026 06:00 AM 49714
66883 11.5 3.82 -5 32 50 33 0 -73 9 02/21/2026 05:45 AM 49713
66882 11.5 3.63 -5 32 51 33 0 -73 9 02/21/2026 05:30 AM 49712
66881 11.5 3.64 -5 32 50 34 0 -73 9 02/21/2026 05:15 AM 49711
66880 11.5 3.82 -5 32 51 34 0 -74 9 02/21/2026 05:00 AM 49710
66879 11.5 3.82 -5 32 51 34 0 -73 9 02/21/2026 04:45 AM 49709
66878 11.4 3.64 -5 32 51 34 0 -73 9 02/21/2026 04:30 AM 49708
66877 11.4 3.64 -5 32 51 34 0 -73 9 02/21/2026 04:15 AM 49707
66876 11.4 3.63 -5 32 51 34 0 -73 9 02/21/2026 04:00 AM 49706
66875 11.4 3.65 -5 32 50 34 0 -73 9 02/21/2026 03:45 AM 49705
66874 11.4 3.64 -5 33 50 35 0 -73 9 02/21/2026 03:30 AM 49704
66873 11.4 3.82 -5 33 50 35 0 -73 9 02/21/2026 03:15 AM 49703
66872 11.4 3.64 -5 33 50 36 0.1 -73 9 02/21/2026 03:00 AM 49702
66871 11.4 3.65 -5 32 51 35 0 -73 9 02/21/2026 02:45 AM 49701
66870 11.4 3.64 -5 32 51 34 0 -74 9 02/21/2026 02:30 AM 49700